Simultaneous Nadir Overpasses (SNOs) Predictions

Prediction of SNOs between METOP-B and NPP Satellite Orbit:

Table of predicted SNOs for the next 14.0 days since TLE Epoch: 5/22/2014
Index Date (METOP-B) Time (METOP-B) Lat,Lon (METOP-B) SZA (METOP-B ) Date (NPP) Time (NPP) Lat,Lon (NPP) SZA (NPP ) Distance(km) Time Diff (sec)
1 06/04/2014 19:03:17 73.62,-111.78 51.13 06/04/2014 19:02:09 73.59,-114.30 51.22 78.92 68
2 06/04/2014 19:54:01 -73.49, 55.25 128.99 06/04/2014 19:52:51 -73.49, 53.26 128.90 62.73 70
3 06/04/2014 20:44:45 73.30,-137.85 50.83 06/04/2014 20:43:33 73.30,-138.99 50.89 36.25 72
4 06/04/2014 21:35:28 -73.22, 29.30 129.25 06/04/2014 21:34:15 -73.19, 28.56 129.23 23.98 73
5 06/04/2014 22:26:12 73.03,-163.79 50.57 06/04/2014 22:24:58 73.05,-163.81 50.61 2.24 74
6 06/04/2014 23:16:53 -73.05, 3.59 129.41 06/04/2014 23:15:42 -73.04, 3.52 129.40 2.51 71
7 06/05/2014 00:07:34 73.01, 170.83 50.55 06/05/2014 00:06:27 73.00, 170.93 50.55 3.32 67
8 06/05/2014 00:58:15 -73.03, -21.79 129.44 06/05/2014 00:57:12 -73.04, -21.86 129.41 2.68 63
9 06/05/2014 01:48:56 72.99, 145.45 50.52 06/05/2014 01:47:57 73.00, 145.55 50.54 3.62 59
10 06/05/2014 02:39:37 -73.01, -47.18 129.47 06/05/2014 02:38:41 -72.99, -47.13 129.47 2.32 56
11 06/05/2014 03:30:17 73.02, 120.17 50.54 06/05/2014 03:29:27 73.00, 120.18 50.53 2.01 50
12 06/05/2014 04:20:59 -72.99, -72.56 129.49 06/05/2014 04:20:11 -72.99, -72.50 129.48 2.05 48
13 06/05/2014 05:11:39 73.00, 94.79 50.52 06/05/2014 05:10:57 73.00, 94.80 50.53 0.54 42
14 06/05/2014 06:02:20 -73.02, -97.84 129.47 06/05/2014 06:01:41 -73.00, -97.88 129.49 2.86 39
15 06/05/2014 06:53:01 72.97, 69.40 50.49 06/05/2014 06:52:27 73.00, 69.42 50.52 2.80 34
16 06/05/2014 07:43:42 -73.00,-123.22 129.50 06/05/2014 07:43:11 -73.00,-123.25 129.49 1.07 31
17 06/05/2014 08:34:22 73.00, 44.13 50.51 06/05/2014 08:33:57 73.00, 44.05 50.51 2.64 25
18 06/05/2014 09:25:04 -72.98,-148.60 129.52 06/05/2014 09:24:41 -73.00,-148.63 129.50 2.28 23
19 06/05/2014 10:15:44 72.98, 18.74 50.48 06/05/2014 10:15:27 73.00, 18.67 50.50 2.95 17
20 06/05/2014 11:06:26 -72.96,-173.99 129.55 06/05/2014 11:06:10 -72.95,-173.90 129.56 3.19 16
21 06/05/2014 11:57:06 72.96, -6.64 50.46 06/05/2014 11:56:56 72.95, -6.59 50.44 2.04 10
22 06/05/2014 12:47:48 -72.94, 160.63 129.58 06/05/2014 12:47:40 -72.95, 160.73 129.57 3.48 8
23 06/05/2014 13:38:28 72.94, -32.02 50.43 06/05/2014 13:38:26 72.95, -31.97 50.44 1.97 2
24 06/05/2014 14:29:09 -72.97, 135.35 129.56 06/05/2014 14:29:10 -72.95, 135.35 129.57 2.01 1
25 06/05/2014 15:19:49 72.97, -57.30 50.45 06/05/2014 15:19:56 72.95, -57.35 50.43 2.77 7
26 06/05/2014 16:10:31 -72.95, 109.97 129.58 06/05/2014 16:10:40 -72.95, 109.98 129.58 0.43 9
27 06/05/2014 17:01:11 72.95, -82.68 50.42 06/05/2014 17:01:26 72.95, -82.72 50.42
